Weather History for KMCE - April, 2014

Change the Weather History Date:

Saturday, April 5, 2014

  Actual Average Record
Temperature  
Mean Temperature 56 °F 56 °F  
Max Temperature 70 °F 69 °F 79 °F (2011)
Min Temperature 41 °F 43 °F 36 °F (1955)
Degree Days  
Heating Degree Days 9    
Month to date heating degree days 56  
Since 1 July heating degree days 2084  
Cooling Degree Days 0    
Month to date cooling degree days 0  
Year to date cooling degree days 0  
Growing Degree Days 6 (Base 50)    
Moisture  
Dew Point 44 °F    
Average Humidity 67    
Maximum Humidity 96    
Minimum Humidity 37    
Precipitation  
Precipitation 0.00 in 0.04 in 0.64 in (2006)
Month to date precipitation 0.29 0.20  
Year to date precipitation 3.66 7.22  
Since 1 July precipitation 4.67  
Snow  
Snow 0.00 in - - ()
Month to date snowfall 0.0  
Since 1 July snowfall 0.0  
Snow Depth 0.00 in    
Sea Level Pressure  
Sea Level Pressure 30.08 in    
Wind  
Wind Speed 8 mph (NW)    
Max Wind Speed 20 mph    
Max Gust Speed 28 mph    
Visibility 8 miles    
Events Fog    
T = Trace of Precipitation, MM = Missing Value Source: NWS Daily Summary

Daily Weather History Graph

Daily Weather History Graph

Search for Another Location

Airport or City:

Trip Planner

Search our weather history database for the weather conditions in past years. The results will help you decide how hot, cold, wet, or windy it might be!

Date:

Astronomy

Apr. 05, 2014 Rise Set
Actual Time 6:41 AM PDT 7:28 PM PDT
Civil Twilight 6:15 AM PDT 7:54 PM PDT
Nautical Twilight 5:44 AM PDT 8:26 PM PDT
Astronomical Twilight 5:11 AM PDT 8:58 PM PDT
Moon 10:58 AM PDT (4/5) 12:37 AM PDT (4/5)
Length of Visible Light 13h 39m
Length of Day
12h 46m
Waxing Crescent, 35% of the Moon is Illuminated
Apr 5
Waxing Crescent
Apr 7
First Quarter
Apr 15
Full
Apr 22
Last Quarter
Apr 28
New

Hourly Weather History & Observations

Time (PDT) Temp. Windchill Dew Point Humidity Pressure Visibility Wind Dir Wind Speed Gust Speed Precip Events Conditions
12:53 AM 48.9 °F - 43.0 °F 80% 30.03 in 10.0 mi NW 6.9 mph - N/A   Clear
1:53 AM 48.0 °F - 43.0 °F 83% 30.03 in 10.0 mi NW 3.5 mph - N/A   Clear
2:53 AM 46.9 °F - 43.0 °F 86% 30.02 in 10.0 mi WNW 5.8 mph - N/A   Clear
3:53 AM 45.0 °F 42.6 °F 42.1 °F 90% 30.02 in 10.0 mi WNW 4.6 mph - N/A   Clear
4:53 AM 43.0 °F 41.3 °F 41.0 °F 93% 30.03 in 9.0 mi WNW 3.5 mph - N/A   Clear
5:53 AM 44.1 °F - 41.0 °F 89% 30.04 in 9.0 mi Calm Calm - N/A   Clear
6:53 AM 43.0 °F 39.5 °F 41.0 °F 93% 30.06 in 4.0 mi NW 5.8 mph - N/A   Clear
7:03 AM 44.1 °F 40.8 °F 42.1 °F 93% 30.06 in 4.0 mi NNW 5.8 mph - N/A   Scattered Clouds
7:07 AM 45.0 °F 40.1 °F 42.1 °F 90% 30.06 in 3.0 mi NNW 9.2 mph - N/A   Mostly Cloudy
7:10 AM 46.0 °F 41.0 °F 43.0 °F 89% 30.06 in 1.5 mi NNW 10.4 mph - N/A   Mostly Cloudy
7:18 AM 46.9 °F - 45.0 °F 93% 30.07 in 0.5 mi NNW 10.4 mph - N/A Fog Fog
7:53 AM 48.0 °F - 46.0 °F 93% 30.08 in 1.8 mi NNW 11.5 mph - N/A   Overcast
8:03 AM 48.9 °F - 46.0 °F 90% 30.08 in 2.5 mi NNW 13.8 mph - N/A   Overcast
8:18 AM 48.9 °F - 46.9 °F 93% 30.08 in 3.0 mi NNW 12.7 mph - N/A   Overcast
8:34 AM 50.0 °F - 46.9 °F 89% 30.09 in 4.0 mi NNW 13.8 mph - N/A   Overcast
8:53 AM 50.0 °F - 46.9 °F 89% 30.09 in 5.0 mi NNW 13.8 mph - N/A   Overcast
9:46 AM 54.0 °F - 48.0 °F 80% 30.12 in 8.0 mi NNW 10.4 mph - N/A   Scattered Clouds
9:53 AM 55.0 °F - 46.9 °F 74% 30.12 in 8.0 mi NNW 9.2 mph - N/A   Scattered Clouds
10:53 AM 60.1 °F - 46.0 °F 60% 30.13 in 10.0 mi NNW 15.0 mph - N/A   Clear
11:53 AM 62.1 °F - 44.1 °F 52% 30.12 in 10.0 mi NNW 15.0 mph - N/A   Partly Cloudy
12:53 PM 64.9 °F - 45.0 °F 48% 30.11 in 10.0 mi NNW 13.8 mph - N/A   Clear
1:53 PM 66.0 °F - 45.0 °F 47% 30.11 in 10.0 mi NW 11.5 mph 20.7 mph N/A   Clear
2:53 PM 68.0 °F - 44.1 °F 42% 30.09 in 10.0 mi NW 12.7 mph 20.7 mph N/A   Clear
3:53 PM 69.1 °F - 44.1 °F 40% 30.08 in 10.0 mi NW 10.4 mph - N/A   Clear
4:53 PM 70.0 °F - 43.0 °F 38% 30.09 in 10.0 mi NNW 12.7 mph 20.7 mph N/A   Clear
5:53 PM 69.1 °F - 43.0 °F 39% 30.09 in 10.0 mi NW 12.7 mph 23.0 mph N/A   Clear
6:53 PM 66.0 °F - 44.1 °F 45% 30.09 in 10.0 mi NNW 10.4 mph - N/A   Clear
7:53 PM 60.1 °F - 46.0 °F 60% 30.10 in 10.0 mi NNW 6.9 mph - N/A   Clear
8:53 PM 61.0 °F - 46.0 °F 58% 30.12 in 10.0 mi WNW 6.9 mph - N/A   Clear
9:53 PM 57.9 °F - 46.0 °F 65% 30.14 in 10.0 mi NW 6.9 mph - N/A   Clear
10:53 PM 57.0 °F - 45.0 °F 64% 30.14 in 10.0 mi Calm Calm - N/A   Clear
11:53 PM 55.9 °F - 45.0 °F 67% 30.15 in 10.0 mi Calm Calm - N/A   Clear